Location: Hohenfelde
(53.8441°N, 9.6220°E)
Time: 11:56:17
(UTC+00:00)

Iridium 4 Rocket - Pass Details

Date: 14 July 2020
Orbit: 583 x 906 km, 86.9° (Epoch: 09 August)

Event Time Altitude Azimuth Distance (km) Brightness Sun altitude
Exits shadow 00:24:13 19° 190° (S) 1,908 4.9 -13.5°
Maximum altitude 00:28:18 76° 275° (W) 851 3.7 -13.4°
Drops below altitude 10° 00:33:34 10° 2° (N) 2,329 7.3 -13.2°
Sets 00:35:49 0° 4° (N) 3,210 8.5 -13.1°
